User: anonymous   Login
Location: Mount Cross
(36.6390°N, 79.4878°W)
Time: 11:31:21
(UTC+00:00)
Language:

Transit 2A Rocket - Orbit

View from above orbital plane
View from above orbital plane
View from above satellite
View from above satellite

Ground track
Ground track

The orbit data is extracted from the following two-line orbital elements,

1 00047U 60007C   23084.89550132  .00000955  00000-0  23052-3 0  9998
2 00047  66.6669 329.8132 0233318 282.7621  74.7501 14.42752121280539
Epoch (UTC): 25 March 2023 21:29:31
Eccentricity: 0.0233318
inclination: 66.6669°
perigee height: 583 km
apogee height: 916 km
right ascension of ascending node: 329.8132°
argument of perigee: 282.7621°
revolutions per day: 14.42752121
mean anomaly at epoch: 74.7501°
orbit number at epoch: 28053

The dashed part of the orbit path shows where the satellite is in the earth's shadow,  

DLR